TimeEDT,TemperatureF,Dew PointF,Humidity,Sea Level PressureIn,VisibilityMPH,Wind Direction,Wind SpeedMPH,Gust SpeedMPH,PrecipitationIn,Events,Conditions,WindDirDegrees,DateUTC
12:53 AM,60.1,57.0,90,30.25,10.0,Calm,Calm,-,N/A,,Partly Cloudy,0,2013-08-18 04:53:00
1:53 AM,59.0,55.9,90,30.25,10.0,Calm,Calm,-,N/A,,Partly Cloudy,0,2013-08-18 05:53:00
2:53 AM,59.0,55.9,90,30.25,10.0,Calm,Calm,-,N/A,,Partly Cloudy,0,2013-08-18 06:53:00
3:53 AM,62.1,57.9,86,30.25,10.0,Calm,Calm,-,N/A,,Overcast,0,2013-08-18 07:53:00
4:53 AM,61.0,57.9,90,30.25,10.0,Calm,Calm,-,N/A,,Overcast,0,2013-08-18 08:53:00
5:53 AM,60.1,57.0,90,30.24,10.0,Calm,Calm,-,N/A,,Clear,0,2013-08-18 09:53:00
6:53 AM,61.0,57.9,90,30.25,10.0,NNW,3.5,-,N/A,,Clear,330,2013-08-18 10:53:00
7:53 AM,66.9,60.1,79,30.25,10.0,Calm,Calm,-,N/A,,Clear,0,2013-08-18 11:53:00
8:53 AM,72.0,62.1,71,30.25,10.0,Calm,Calm,-,N/A,,Clear,0,2013-08-18 12:53:00
9:53 AM,73.9,59.0,59,30.24,10.0,Calm,Calm,-,N/A,,Clear,0,2013-08-18 13:53:00
10:53 AM,77.0,61.0,58,30.24,10.0,South,3.5,-,N/A,,Mostly Cloudy,170,2013-08-18 14:53:00
11:53 AM,78.1,63.0,60,30.23,10.0,SE,5.8,-,N/A,,Clear,130,2013-08-18 15:53:00
12:53 PM,73.0,60.1,64,30.22,10.0,SSE,6.9,-,N/A,,Mostly Cloudy,160,2013-08-18 16:53:00
1:53 PM,75.0,61.0,62,30.20,10.0,SSE,5.8,-,N/A,,Partly Cloudy,160,2013-08-18 17:53:00
1:57 PM,75.2,60.8,61,30.21,10.0,South,4.6,-,N/A,,Overcast,170,2013-08-18 17:57:00
2:31 PM,75.2,60.8,61,30.20,10.0,Variable,4.6,-,N/A,,Overcast,0,2013-08-18 18:31:00
2:53 PM,75.9,61.0,60,30.17,10.0,SSE,5.8,-,N/A,,Overcast,160,2013-08-18 18:53:00
3:53 PM,73.9,61.0,64,30.15,10.0,SSE,4.6,-,N/A,,Mostly Cloudy,150,2013-08-18 19:53:00
4:53 PM,73.0,59.0,61,30.13,10.0,SSE,6.9,-,N/A,,Mostly Cloudy,160,2013-08-18 20:53:00
5:53 PM,71.1,61.0,70,30.12,10.0,SE,3.5,-,N/A,,Overcast,130,2013-08-18 21:53:00
6:53 PM,70.0,62.1,76,30.11,10.0,SSE,4.6,-,N/A,,Overcast,150,2013-08-18 22:53:00
7:53 PM,68.0,61.0,78,30.11,10.0,Calm,Calm,-,N/A,,Mostly Cloudy,0,2013-08-18 23:53:00
8:53 PM,66.9,57.9,73,30.11,10.0,SW,5.8,-,N/A,,Clear,220,2013-08-19 00:53:00
9:53 PM,68.0,57.0,68,30.09,10.0,SW,5.8,-,N/A,,Clear,220,2013-08-19 01:53:00
10:53 PM,66.0,55.9,70,30.08,10.0,Calm,Calm,-,N/A,,Clear,0,2013-08-19 02:53:00
11:53 PM,64.0,55.9,75,30.07,10.0,SSW,3.5,-,N/A,,Clear,210,2013-08-19 03:53:00